Showing default

SKYSAT C3, 41774

Orbit data source: Space-Track

SKYSAT C3, 41774 is a payload satellite owned by Terra Bella (US) in SSO that was launched on Fri, 16 Sep 2016 UTC via a VEGA launch vehicle from the French Guiana (FRGUI). Payload-class satellites include a variety of spacecraft equipped with specific instruments for various scientific and technological missions. These include communications satellites like Starlink; space stations such as the ISS; scientific satellites like the Hubble; Earth observation satellites from companies like Planet Labs, Umbra, and HawkEye 360; GPS; miniature CubeSats for education and research; and military/defense satellites.

Loading next visibility...
Identifier
41774, 2016-058E
Orbit
SSO
Country
Flag of USUS
Related business
Manufacturer
SS/Loral (MDA)
Mission
Operational Commercial Imaging
Bus & Motor
SKYSAT-GEN2, Unknown motor
Mass
110 kg wet, 110 kg dry
Launch date (UTC)
2016-09-16 (9 years ago)
Launch vehicle
VEGA
Launch site
French Guiana (FRGUI)
Object type
Payload
Rocket body
Debris
Shape & HBR
Box, 1.0 m
Radar Cross Section
0.888 m², Medium (>0.1 m² and < 1m²)

Expand to show TLE details & history
Last TLE update: 8 hours ago

TLE from 8 hours ago
0 SKYSAT C3
1 41774U 16058E   25308.85052760  .00017708  00000-0  40966-3 0  9995
2 41774  96.9357 344.3996 0002026  76.4322 283.7152 15.42525239511414
Epoch: 2025-11-04T20:24Z
TLE epoch observation values (Epoch: 2025-11-04T20:24:45.584Z)
Latitude
-0.00005°
Longitude
-6.12196°
Altitude
441.466 km
Speed
7.647 km/s
True Right ascension
22h 57m 35s
True Declination
0° 00' 00"
Sunlit
Object was in full shadow at epoch
Visualization orbit readout
Latitude
Unknown
Longitude
Unknown
Altitude
Unknown
Speed
Unknown
Apparent Right ascension
Unknown
Apparent Declination
Unknown
Sunlit
N/A
Visualization observer readout
Local Sidereal Time
00:44:09
Azimuth
Unknown
Elevation
Unknown
Doppler factor
Unknown
Orbital elements
Apogee altitude
436.956 km
Perigee altitude
434.195 km
Semi-major axis
6,813.713 km
Eccentricity
0.0002
Inclination
96.9357°
RAAN
344.3996°
Arg. of periapsis
76.4322°
True anomaly
283.69264°
Mean anomaly
283.7152°
Eccentric anomaly
283.70392°
Mean motion
3.85893 °/min
Orbital period
93.29 mins
BSTAR
0.00040966
Loading maneuver chart data...
Computing Atmospheric mass density...
Loading historical data...
Loading historical data...
Loading historical data...
Loading historical data...
Loading historical data...
Loading historical data...
Loading historical data...

Documentation

Showing up to 5 results
|